Weather History for Topeka Forbes, KS

Change the Weather History Date:

Tuesday, August 14, 2012

  Actual Average Record
Temperature  
Mean Temperature 65 °F -  
Max Temperature 72 °F 86 °F 102 °F (1952)
Min Temperature 59 °F 66 °F 50 °F (2004)
Growing Degree Days 15 (Base 50)    
Moisture  
Dew Point 59 °F    
Average Humidity 83    
Maximum Humidity 93    
Minimum Humidity 65    
Precipitation  
Precipitation 0.26 in - - ()
Sea Level Pressure  
Sea Level Pressure 30.01 in    
Wind  
Wind Speed 4 mph (SSE)    
Max Wind Speed 12 mph    
Max Gust Speed -    
Visibility 10 miles    
Events Rain    
Averages and records for this station are not official NWS values.
T = Trace of Precipitation, MM = Missing Value Source: NWS Daily Summary

Daily Weather History Graph

Daily Weather History Graph

Search for Another Location

Airport:

Trip Planner

Search our weather history database for the weather conditions in past years. The results will help you decide how hot, cold, wet, or windy it might be!

Date:

Astronomy

Aug. 14, 2012 Rise Set
Actual Time 6:35 AM CDT 8:18 PM CDT
Civil Twilight 6:07 AM CDT 8:46 PM CDT
Nautical Twilight 5:32 AM CDT 9:20 PM CDT
Astronomical Twilight 4:55 AM CDT 9:57 PM CDT
Moon 3:35 AM CDT (8/14) 6:12 PM CDT (8/14)
Length of Visible Light 14h 39m
Length of Day
13h 42m
Waning Crescent, 9% of the Moon is Illuminated
Aug 14
Waning Crescent
Aug 17
New
Aug 24
First Quarter
Aug 31
Full
Sep 8
Last Quarter

Hourly Weather History & Observations

Time (CDT) Temp. Dew Point Humidity Pressure Visibility Wind Dir Wind Speed Gust Speed Precip Events Conditions
12:53 AM 59.0 °F 55.9 °F 90% 30.03 in 10.0 mi Calm Calm - N/A   Clear
1:53 AM 59.0 °F 55.9 °F 90% 30.01 in 10.0 mi South 3.5 mph - N/A   Clear
2:53 AM 61.0 °F 57.0 °F 87% 30.03 in 10.0 mi Calm Calm - N/A   Clear
3:53 AM 61.0 °F 57.0 °F 87% 30.04 in 10.0 mi Calm Calm - N/A   Clear
5:53 AM 60.1 °F 57.0 °F 90% 30.02 in 10.0 mi Calm Calm - N/A   Clear
6:53 AM 60.1 °F 57.0 °F 90% 30.02 in 10.0 mi Calm Calm - N/A   Clear
7:53 AM 62.1 °F 57.9 °F 86% 30.05 in 10.0 mi Calm Calm - 0.00 in Rain Light Rain
8:53 AM 62.1 °F 59.0 °F 90% 30.08 in 10.0 mi SSW 4.6 mph - 0.02 in Rain Light Rain
9:53 AM 62.1 °F 60.1 °F 93% 30.02 in 5.0 mi East 10.4 mph - 0.09 in Rain Rain
10:53 AM 63.0 °F 61.0 °F 93% 30.05 in 6.0 mi South 6.9 mph - 0.09 in Rain Light Rain
11:53 AM 63.0 °F 60.1 °F 90% 30.04 in 9.0 mi South 9.2 mph - 0.06 in Rain Light Rain
12:53 PM 66.0 °F 61.0 °F 84% 30.04 in 10.0 mi SSW 9.2 mph - 0.00 in   Partly Cloudy
1:53 PM 68.0 °F 59.0 °F 73% 30.03 in 10.0 mi South 11.5 mph - N/A   Partly Cloudy
2:53 PM 71.1 °F 60.1 °F 68% 30.01 in 10.0 mi South 8.1 mph - N/A   Partly Cloudy
3:53 PM 70.0 °F 57.9 °F 65% 30.00 in 10.0 mi South 11.5 mph - N/A   Overcast
4:53 PM 68.0 °F 59.0 °F 73% 29.99 in 10.0 mi South 10.4 mph - N/A   Mostly Cloudy
5:01 PM 69.8 °F 59.0 °F 68% 30.00 in 10.0 mi South 11.5 mph - N/A   Scattered Clouds
5:53 PM 70.0 °F 57.9 °F 65% 29.98 in 10.0 mi SSE 11.5 mph - N/A   Clear
6:53 PM 70.0 °F 59.0 °F 68% 29.96 in 10.0 mi South 8.1 mph - N/A   Clear
7:53 PM 66.9 °F 60.1 °F 79% 29.96 in 10.0 mi SSE 5.8 mph - N/A   Clear
8:53 PM 64.0 °F 60.1 °F 87% 29.94 in 10.0 mi ESE 4.6 mph - N/A   Clear
9:53 PM 62.1 °F 59.0 °F 90% 29.95 in 10.0 mi Calm Calm - N/A   Clear
10:53 PM 60.1 °F 57.9 °F 93% 29.94 in 10.0 mi SE 3.5 mph - N/A   Clear
11:53 PM 60.1 °F 57.9 °F 93% 29.93 in 10.0 mi SE 4.6 mph - N/A   Clear